368  
ASUS43 KLSX 171557  
RWRMO  
 
WEATHER SUMMARY FOR MISSOURI  
NATIONAL WEATHER SERVICE SPRINGFIELD MO  
1000 AM CST SUN DEC 17 2017  
 
NOTE: "FAIR" INDICATES FEW OR NO CLOUDS BELOW 12,000 FEET WITH NO  
SIGNIFICANT WEATHER AND/OR S TO VISIBILITY
.  
CURRENT SKY AND/OR WEATHER CONDITIONS ARE NOT AVAILABLE FOR  
CHILLICOTHE AND FARMINGTON.  
 
MOZ001>031-035>038-043-044-053-054-171700-   
..NORTHERN AND WESTERN MISSOURI
 
 
 
CITY SKY/WX TMP DP RH WIND PRES REMARKS
 
KANSAS CTY INT CLOUDY 43 42 97 SW8 30.04R FOG  
LEE'S SUMMIT CLOUDY 44 44 100 SW9 30.05R FOG  
ST JOSEPH LGT RAIN 43 43 100 SW7 30.04R FOG  
CHILLICOTHE N/A 44 40 85 S6 30.05R  
 

 
MOZ066>068-077>081-088>096-101>105-171700-   
..SOUTHWEST MISSOURI
 
 
 
CITY SKY/WX TMP DP RH WIND PRES REMARKS
 
SPRINGFIELD CLOUDY 44 43 96 S10 30.08R FOG  
JOPLIN CLOUDY 44 44 100 S7 30.08R FOG  
 

 
MOZ032>034-039>042-045>050-055>058-069>072-171700-   
..CENTRAL MISSOURI
 
 
 
CITY SKY/WX TMP DP RH WIND PRES REMARKS
 
COLUMBIA NOT AVBL  
JEFFERSON CITY CLOUDY 46 41 82 CALM 30.10F  
ROLLA CLOUDY 44 38 79 S5 30.10R  
SEDALIA CLOUDY 45 45 100 S6 30.07F  
WARRENSBURG CLOUDY 43 41 93 S6 30.05F FOG  
 

 
MOZ051-052-059>065-171700-   
..EAST CENTRAL MISSOURI
 
 
 
CITY SKY/WX TMP DP RH WIND PRES REMARKS
 
ST LOUIS INTL CLOUDY 48 34 58 SW3 30.11R  
 

 
MOZ072>076-082>087-097>100-106>115-171700-   
..SOUTH CENTRAL AND SOUTHEAST MISSOURI
 
 
 
CITY SKY/WX TMP DP RH WIND PRES REMARKS
 
CAPE GIRARDEAU CLOUDY 43 41 93 S6 30.13S FOG  
POPLAR BLUFF CLOUDY 43 42 97 S7 30.14R FOG  
WEST PLAINS CLOUDY 43 41 93 S5 30.10R  
 

 
 
CLICK HERE TO GO TO PREVIOUS BULLETINS.

The Nexlab MO Page Main Text Page